This demonstration page uses our WeatherBlox Daily Observations layout. Learn more.

Left ArrowRight Arrow

39.29038, -76.61219

Hourly Observations for May 14, 2020

Temp ( °F °C ) Dew Point ( °F °C ) Humidity (%) Winds ( mph kmh ) Pressure ( in mb ) Visibility ( mi km ) Precip ( " mm )
12:54 am 00:54 undefined 55 12.8 46 7.8 72 72 undefined N/A 30.29 1026 N/A N/A
1:54 am 01:54 undefined 54 12.2 45 7.2 72 72 undefined N/A 30.28 1026 N/A N/A
2:54 am 02:54 undefined 53 11.7 44 6.7 72 72 undefined N/A 30.28 1026 N/A N/A
3:54 am 03:54 undefined 52 11.1 44 6.7 75 75 undefined N/A 30.29 1026 N/A N/A
4:54 am 04:54 undefined 51 10.6 43 6.1 74 74 undefined N/A 30.29 1026 N/A N/A
5:54 am 05:54 undefined 50 10 43 6.1 77 77 undefined N/A 30.29 1026 N/A N/A
6:54 am 06:54 undefined 52 11.1 45 7.2 77 77 undefined N/A 30.30 1026 N/A N/A
7:54 am 07:54 undefined 56 13.3 46 7.8 70 70 undefined N/A 30.31 1026 N/A N/A
8:54 am 08:54 undefined 59 15 48 8.9 67 67 undefined N/A 30.31 1026 N/A N/A
9:54 am 09:54 undefined 62 16.7 50 10 65 65 undefined N/A 30.31 1026 N/A N/A
10:54 am 10:54 undefined 65 18.3 50 10 59 59 undefined N/A 30.28 1025 N/A N/A
11:54 am 11:54 undefined 65 18.3 50 10 59 59 undefined N/A 30.26 1025 N/A N/A
12:54 pm 12:54 undefined 69 20.6 50 10 51 51 undefined N/A 30.23 1024 N/A N/A
1:54 pm 13:54 undefined 70 21.1 50 10 49 49 undefined N/A 30.19 1023 N/A N/A
2:54 pm 14:54 undefined 72 22.2 52 11.1 50 50 undefined N/A 30.16 1022 N/A N/A
3:54 pm 15:54 undefined 71 21.7 52 11.1 51 51 undefined N/A 30.15 1021 N/A N/A
4:54 pm 16:54 undefined 73 22.8 53 11.7 50 50 undefined N/A 30.12 1020 N/A N/A
5:54 pm 17:54 undefined 72 22.2 52 11.1 50 50 undefined N/A 30.11 1020 N/A N/A
6:54 pm 18:54 undefined 70 21.1 53 11.7 55 55 undefined N/A 30.11 1020 N/A N/A
7:54 pm 19:54 undefined 70 21.1 53 11.7 55 55 undefined N/A 30.10 1019 N/A N/A
8:54 pm 20:54 undefined 66 18.9 54 12.2 65 65 undefined N/A 30.11 1020 N/A N/A
9:54 pm 21:54 undefined 66 18.9 55 12.8 68 68 undefined N/A 30.11 1020 N/A N/A
10:54 pm 22:54 undefined 65 18.3 55 12.8 70 70 undefined N/A 30.09 1019 N/A N/A
11:54 pm 23:54 undefined 64 17.8 56 13.3 75 75 undefined N/A 30.07 1018 N/A N/A

Powered by AerisWeather